TimeAKST,TemperatureF,Dew PointF,Humidity,Sea Level PressureIn,VisibilityMPH,Wind Direction,Wind SpeedMPH,Gust SpeedMPH,PrecipitationIn,Events,Conditions,WindDirDegrees,DateUTC
12:16 AM,37.4,32.0,81,29.47,10.0,NNW,5.8,-,N/A,,Scattered Clouds,340,2012-11-16 09:16:00
12:36 AM,37.4,32.0,81,29.46,10.0,NNW,9.2,-,N/A,,Clear,330,2012-11-16 09:36:00
12:56 AM,35.6,30.2,81,29.44,10.0,NNW,8.1,-,N/A,,Partly Cloudy,330,2012-11-16 09:56:00
1:16 AM,35.6,30.2,81,29.42,10.0,NNW,6.9,-,N/A,,Clear,330,2012-11-16 10:16:00
1:36 AM,35.6,30.2,81,29.41,10.0,NNW,4.6,-,N/A,,Scattered Clouds,340,2012-11-16 10:36:00
1:56 AM,35.6,30.2,81,29.39,10.0,NNW,11.5,-,N/A,,Mostly Cloudy,330,2012-11-16 10:56:00
2:16 AM,37.4,30.2,75,29.38,10.0,NW,8.1,-,N/A,,Partly Cloudy,320,2012-11-16 11:16:00
2:36 AM,37.4,30.2,75,29.37,10.0,North,6.9,-,N/A,,Clear,350,2012-11-16 11:36:00
2:56 AM,35.6,30.2,81,29.36,10.0,NNW,8.1,-,N/A,,Clear,330,2012-11-16 11:56:00
3:16 AM,37.4,32.0,81,29.35,10.0,NNW,4.6,-,N/A,,Clear,330,2012-11-16 12:16:00
3:36 AM,37.4,30.2,75,29.35,10.0,Calm,Calm,-,N/A,,Clear,0,2012-11-16 12:36:00
3:56 AM,37.4,32.0,81,29.34,10.0,Calm,Calm,-,N/A,,Partly Cloudy,0,2012-11-16 12:56:00
4:16 AM,37.4,30.2,75,29.34,10.0,Calm,Calm,-,N/A,,Mostly Cloudy,0,2012-11-16 13:16:00
4:36 AM,37.4,30.2,75,29.34,10.0,West,3.5,-,N/A,,Overcast,280,2012-11-16 13:36:00
4:56 AM,35.6,30.2,81,29.33,10.0,Calm,Calm,-,N/A,,Overcast,0,2012-11-16 13:56:00
5:16 AM,35.6,30.2,81,29.32,10.0,Calm,Calm,-,N/A,,Overcast,0,2012-11-16 14:16:00
5:36 AM,35.6,30.2,81,29.32,10.0,SE,3.5,-,N/A,,Overcast,130,2012-11-16 14:36:00
5:56 AM,35.6,30.2,81,29.32,10.0,Calm,Calm,-,N/A,,Overcast,0,2012-11-16 14:56:00
6:16 AM,33.8,28.4,81,29.32,10.0,Calm,Calm,-,N/A,,Overcast,0,2012-11-16 15:16:00
6:36 AM,33.8,30.2,87,29.31,10.0,Calm,Calm,-,N/A,,Overcast,0,2012-11-16 15:36:00
6:56 AM,33.8,30.2,87,29.31,10.0,Calm,Calm,-,N/A,,Overcast,0,2012-11-16 15:56:00
7:16 AM,33.8,30.2,87,29.30,10.0,Calm,Calm,-,N/A,,Overcast,0,2012-11-16 16:16:00
7:36 AM,35.6,30.2,81,29.29,10.0,Calm,Calm,-,N/A,,Overcast,0,2012-11-16 16:36:00
7:56 AM,37.4,30.2,75,29.30,10.0,Calm,Calm,-,N/A,,Overcast,0,2012-11-16 16:56:00
8:16 AM,39.2,30.2,70,29.30,10.0,North,4.6,-,N/A,,Overcast,360,2012-11-16 17:16:00
8:36 AM,39.2,28.4,65,29.30,10.0,Calm,Calm,-,N/A,,Overcast,0,2012-11-16 17:36:00
8:56 AM,39.2,30.2,70,29.30,10.0,North,4.6,-,N/A,,Overcast,350,2012-11-16 17:56:00
9:16 AM,41.0,28.4,61,29.30,10.0,NE,6.9,-,N/A,,Overcast,50,2012-11-16 18:16:00
9:36 AM,39.2,30.2,70,29.30,10.0,NNE,3.5,-,N/A,,Overcast,30,2012-11-16 18:36:00
9:56 AM,39.2,32.0,75,29.30,10.0,NW,4.6,-,N/A,,Overcast,320,2012-11-16 18:56:00
10:16 AM,37.4,30.2,75,29.31,10.0,Calm,Calm,-,N/A,,Overcast,0,2012-11-16 19:16:00
10:36 AM,37.4,32.0,81,29.32,10.0,Calm,Calm,-,N/A,,Overcast,0,2012-11-16 19:36:00
10:56 AM,37.4,32.0,81,29.33,10.0,NW,3.5,-,N/A,,Overcast,320,2012-11-16 19:56:00
11:16 AM,37.4,32.0,81,29.33,10.0,WNW,6.9,-,N/A,,Overcast,300,2012-11-16 20:16:00
11:36 AM,37.4,32.0,81,29.34,10.0,NW,5.8,-,N/A,,Overcast,310,2012-11-16 20:36:00
11:56 AM,37.4,32.0,81,29.35,10.0,NW,5.8,-,N/A,,Overcast,310,2012-11-16 20:56:00
12:16 PM,35.6,30.2,81,29.35,10.0,NW,8.1,-,N/A,,Overcast,320,2012-11-16 21:16:00
12:36 PM,35.6,30.2,81,29.36,9.0,NNW,9.2,-,N/A,,Overcast,330,2012-11-16 21:36:00
12:56 PM,35.6,30.2,81,29.37,8.0,NNW,10.4,-,N/A,,Overcast,330,2012-11-16 21:56:00
1:16 PM,35.6,30.2,81,29.38,9.0,NNW,10.4,-,N/A,,Overcast,330,2012-11-16 22:16:00
1:36 PM,35.6,30.2,81,29.38,6.0,NNW,11.5,17.3,N/A,,Overcast,330,2012-11-16 22:36:00
1:56 PM,35.6,30.2,81,29.39,8.0,NNW,9.2,17.3,N/A,,Overcast,340,2012-11-16 22:56:00
2:16 PM,35.6,30.2,81,29.39,10.0,North,9.2,-,N/A,,Overcast,350,2012-11-16 23:16:00
2:36 PM,33.8,30.2,87,29.40,5.0,North,10.4,-,N/A,,Overcast,350,2012-11-16 23:36:00
2:56 PM,33.8,30.2,87,29.40,9.0,NNW,10.4,-,N/A,,Overcast,340,2012-11-16 23:56:00
3:16 PM,33.8,30.2,87,29.41,10.0,NNW,8.1,-,N/A,,Overcast,340,2012-11-17 00:16:00
3:36 PM,33.8,30.2,87,29.42,10.0,NNW,10.4,-,N/A,,Overcast,330,2012-11-17 00:36:00
3:56 PM,33.8,28.4,81,29.43,4.0,NNW,10.4,-,N/A,,Overcast,340,2012-11-17 00:56:00
4:16 PM,33.8,28.4,81,29.44,5.0,NNW,10.4,-,N/A,,Overcast,340,2012-11-17 01:16:00
4:36 PM,33.8,28.4,81,29.44,10.0,NNW,4.6,-,N/A,,Overcast,340,2012-11-17 01:36:00
4:56 PM,33.8,28.4,81,29.44,9.0,NNW,10.4,-,N/A,,Overcast,340,2012-11-17 01:56:00
5:16 PM,33.8,28.4,81,29.44,10.0,NNW,9.2,-,N/A,,Overcast,340,2012-11-17 02:16:00
5:36 PM,33.8,28.4,81,29.44,10.0,NNW,9.2,-,N/A,,Overcast,340,2012-11-17 02:36:00
5:56 PM,33.8,28.4,81,29.45,10.0,NNW,9.2,-,N/A,,Overcast,340,2012-11-17 02:56:00
6:16 PM,33.8,28.4,81,29.45,10.0,NNW,9.2,-,N/A,,Overcast,340,2012-11-17 03:16:00
6:36 PM,33.8,28.4,81,29.45,10.0,NNW,9.2,-,N/A,,Overcast,340,2012-11-17 03:36:00
6:56 PM,33.8,28.4,81,29.46,10.0,NNW,6.9,-,N/A,,Overcast,340,2012-11-17 03:56:00
7:16 PM,33.8,28.4,81,29.46,10.0,North,4.6,-,N/A,,Overcast,350,2012-11-17 04:16:00
7:36 PM,33.8,26.6,75,29.46,10.0,NNW,6.9,-,N/A,,Overcast,340,2012-11-17 04:36:00
7:56 PM,33.8,26.6,75,29.46,10.0,NNW,5.8,-,N/A,,Overcast,340,2012-11-17 04:56:00
8:16 PM,33.8,26.6,75,29.46,10.0,NNW,3.5,-,N/A,,Overcast,340,2012-11-17 05:16:00
8:36 PM,33.8,26.6,75,29.46,10.0,NNW,8.1,-,N/A,,Scattered Clouds,340,2012-11-17 05:36:00
8:56 PM,33.8,26.6,75,29.46,10.0,NNW,8.1,-,N/A,,Scattered Clouds,340,2012-11-17 05:56:00
9:16 PM,33.8,26.6,75,29.46,10.0,NNW,9.2,-,N/A,,Overcast,340,2012-11-17 06:16:00
9:36 PM,33.8,24.8,70,29.46,10.0,NNW,9.2,-,N/A,,Overcast,340,2012-11-17 06:36:00
9:56 PM,32.0,24.8,75,29.46,10.0,North,8.1,-,N/A,,Overcast,350,2012-11-17 06:56:00
10:16 PM,32.0,24.8,75,29.47,10.0,North,8.1,-,N/A,,Overcast,350,2012-11-17 07:16:00
10:36 PM,32.0,24.8,75,29.46,4.0,NNW,10.4,-,N/A,,Overcast,340,2012-11-17 07:36:00
10:56 PM,30.2,26.6,86,29.46,4.0,NNW,10.4,-,N/A,,Overcast,340,2012-11-17 07:56:00
11:16 PM,30.2,26.6,86,29.46,5.0,NNW,10.4,-,N/A,,Overcast,340,2012-11-17 08:16:00
11:36 PM,30.2,24.8,80,29.45,10.0,NNW,11.5,16.1,N/A,,Scattered Clouds,340,2012-11-17 08:36:00
11:56 PM,30.2,24.8,80,29.45,10.0,NNW,9.2,-,N/A,,Mostly Cloudy,340,2012-11-17 08:56:00